Vertical_Velocity
1 -0 -2 -2 -2 -2 -2 -3 -7 -2 6 16 -1 1 -4 -3 -3 -4 -2 -1 -0 -3 -7 -5 -0 -4 -2 -1 -2 3 -4 1 1 -3 2 -2 -5 -4
-0 -0 -1 -1 -3 -2 -2 -3 -5 -10 -10 0 7 1 1 2 -0 -2 -3 -3 -1 -2 -5 -5 -9 -5 -7 -5 -1 -0 1 -2 -4 -1 -2 0 3 1
-0 -0 -2 -0 -2 -2 -1 -2 -2 -8 -10 7 -5 1 4 1 2 -1 -1 2 -0 -1 -3 -3 -6 -13 4 -9 -3 -2 1 -1 0 0 1 1 -2 -4
1 1 -1 -0 -1 -2 -0 1 -1 -3 -7 -5 -0 3 -3 -2 -1 -1 -1 1 -2 -2 -5 -5 -10 -1 -6 -3 -4 -2 1 1 1 0 0 -5 -4 -2
-0 -1 -1 -2 -1 -2 -1 -1 -2 -1 -4 -9 -1 -2 -2 -4 -3 -5 -0 -0 -3 -13 -0 -1 -2 -5 -4 -6 -4 -3 -3 3 4 2 -3 -2 0 -3
1 -0 -0 -1 -0 -1 -1 -1 -0 1 -1 -3 -2 -2 -5 3 -7 -8 16 -9 7 -8 2 -3 -2 -3 -4 -5 -3 -4 -0 3 2 -2 -2 -0 0 0
1 -1 -1 -1 -2 -1 -0 2 2 0 -2 -5 -2 -0 -3 3 -11 5 -6 -4 8 -4 -1 10 -7 -3 -4 -4 -5 -5 -2 4 0 0 1 0 1 1
1 -3 -2 -1 -0 -1 -3 -3 -0 -4 -3 -5 -2 -6 2 -8 -0 -1 -1 -1 17 -13 -12 20 -19 6 -5 -3 -4 -5 -4 2 -0 1 0 2 -0 2
-1 0 -0 -1 -2 1 0 -0 1 1 -10 -10 -10 -5 3 -7 -2 -1 1 -4 4 1 -12 7 -4 10 -5 1 -8 -6 -3 3 2 -3 -1 1 1 2
-1 -1 1 1 1 0 -1 3 7 5 1 -3 -6 -3 -2 -1 -4 -4 -3 2 7 7 -20 -2 7 10 5 -0 -7 -5 -6 1 2 1 -1 -1 0 0
1 -1 -1 1 3 1 -1 -1 1 -3 -0 -6 -6 -5 -3 -3 -6 -3 -1 -1 4 9 -20 -3 2 5 6 1 -2 -10 -5 -4 3 2 1 -0 -1 -1
0 -4 -8 -6 -2 -1 -1 -2 -0 -1 -2 1 -4 -5 -6 -4 -6 -8 -4 1 -3 13 -16 1 -3 -12 14 1 2 -12 -3 -7 4 3 1 0 -1 1
-1 2 1 3 2 0 -4 -5 -4 0 1 -2 -1 -2 -1 -2 -2 -2 -4 -3 -0 1 -11 -6 3 -2 -6 6 11 -9 -4 -10 1 2 3 -0 -1 -1
2 1 3 3 0 -3 -3 -4 -1 -2 -1 -3 -4 -4 -1 -1 -2 -2 -3 -1 -3 -8 5 -4 1 -4 0 3 4 3 -8 -5 2 -2 2 -1 -0 -1
-1 -4 -1 -1 -0 -4 -2 -1 -2 -2 -1 -2 -3 -4 -3 -0 -2 1 0 -4 4 -6 -6 -3 0 2 -4 -0 3 4 3 -5 -6 3 -1 1 1 -2
-3 -5 -4 -3 -4 1 1 -1 -1 -2 -1 1 2 -0 -1 1 -0 -5 -1 -0 4 5 -13 -3 -0 -2 1 -2 1 5 -2 1 -8 -4 2 2 -3 -3
4 -1 -3 -3 -0 0 -0 -1 -2 -2 -2 -3 -2 -1 -1 0 2 -2 -3 0 -2 2 5 -2 -5 -2 -2 -3 11 -0 -2 -3 -0 -3 -2 0 -8 -10
-5 -3 -0 1 1 2 1 -4 -2 -3 -4 -2 -2 -3 0 1 3 4 -2 -3 1 0 -1 -1 2 5 -1 -14 -1 5 -1 -1 -0 -2 -1 5 5 -11
-3 0 -0 1 0 1 -1 -0 -0 -4 -1 -2 -2 -2 1 2 2 1 -2 -3 -0 -2 -6 -1 -1 -3 4 1 -7 -0 0 -3 -1 -2 2 3 5 -1
1 -0 1 1 0 -2 -2 -1 -4 -3 -2 -4 -3 0 -0 -2 -1 -1 -4 -3 -3 -2 -2 -3 0 1 1 1 -2 -5 2 4 2 4 1 -0 1 1
1 1 0 1 0 -1 -3 -4 -2 -2 0 -0 -4 -2 -0 -1 -2 -2 -1 -1 -0 0 -1 -0 0 1 -1 1 4 1 -1 1 -1 1 -1 -0 2 -1
-0 1 1 1 -1 -2 -2 -2 -4 -1 -2 -3 -2 -1 -1 -1 0 1 1 0 -0 -0 1 1 -2 -1 1 1 1 1 -1 -2 -3 -3 0 2 -0 15
1 1 1 -0 -1 -3 -3 -3 -2 -2 -2 -3 -2 -2 -2 -0 -0 -0 1 2 1 -0 -1 -0 -1 -0 3 3 1 0 -1 -1 1 -3 -6 -1 -4 -6
Height
5691 5688 5685 5681 5676 5671 5666 5661 5656 5654 5653 5646 5639 5632 5625 5618 5610 5603 5596 5589 5582 5576 5568 5561 5554 5547 5539 5531 5522 5513 5501 5493 5487 5479 5475 5472 5467 5466
5681 5677 5672 5668 5663 5658 5653 5647 5641 5635 5632 5626 5620 5613 5607 5600 5592 5585 5578 5569 5561 5553 5544 5535 5525 5516 5506 5496 5484 5471 5459 5449 5442 5440 5437 5436 5436 5436
5670 5665 5660 5655 5650 5645 5639 5632 5626 5619 5614 5610 5600 5592 5586 5578 5572 5564 5556 5547 5538 5525 5514 5502 5492 5480 5469 5455 5445 5434 5427 5421 5418 5418 5418 5418 5418 5419
5658 5653 5648 5643 5637 5631 5625 5618 5611 5603 5596 5592 5583 5574 5567 5558 5549 5541 5531 5519 5506 5493 5480 5468 5455 5445 5434 5427 5418 5413 5409 5407 5406 5404 5403 5403 5404 5406
5646 5641 5635 5629 5623 5616 5610 5602 5594 5587 5578 5570 5565 5554 5546 5536 5527 5516 5504 5490 5475 5460 5448 5436 5430 5423 5418 5410 5406 5402 5398 5396 5394 5392 5390 5391 5392 5393
5634 5628 5622 5615 5609 5602 5594 5587 5579 5570 5561 5553 5546 5536 5525 5514 5502 5491 5482 5462 5448 5431 5425 5418 5415 5407 5403 5397 5393 5389 5386 5384 5383 5381 5380 5380 5381 5381
5621 5614 5608 5601 5593 5586 5578 5570 5562 5553 5543 5534 5525 5513 5500 5488 5473 5462 5448 5436 5424 5414 5413 5403 5399 5392 5387 5382 5378 5375 5374 5373 5372 5371 5370 5369 5369 5370
5607 5600 5593 5586 5578 5570 5561 5552 5543 5532 5520 5509 5500 5486 5472 5457 5444 5432 5422 5416 5414 5394 5396 5393 5380 5379 5371 5367 5363 5360 5361 5360 5360 5358 5357 5357 5357 5357
5594 5587 5580 5572 5564 5556 5547 5537 5526 5513 5498 5485 5474 5460 5446 5428 5419 5413 5405 5398 5391 5382 5379 5381 5364 5364 5355 5352 5347 5346 5345 5346 5345 5344 5344 5344 5344 5344
5581 5574 5566 5558 5550 5541 5532 5521 5509 5494 5479 5463 5446 5432 5419 5411 5404 5398 5390 5384 5376 5364 5356 5360 5351 5347 5340 5336 5330 5330 5329 5330 5330 5329 5328 5328 5329 5330
5567 5558 5551 5543 5534 5525 5514 5500 5486 5470 5454 5437 5422 5414 5406 5396 5387 5382 5372 5365 5360 5350 5337 5340 5333 5329 5324 5321 5315 5315 5315 5315 5315 5314 5313 5314 5314 5316
5553 5544 5535 5527 5516 5505 5493 5480 5467 5450 5434 5422 5411 5400 5391 5381 5371 5362 5355 5349 5343 5340 5325 5327 5318 5311 5314 5309 5302 5300 5299 5298 5300 5300 5299 5299 5300 5303
5541 5531 5522 5511 5499 5486 5472 5458 5443 5431 5422 5413 5403 5392 5380 5369 5358 5348 5339 5332 5328 5323 5315 5313 5309 5303 5299 5301 5297 5292 5286 5286 5286 5286 5286 5286 5287 5290
5525 5516 5505 5493 5480 5466 5452 5438 5429 5420 5412 5403 5392 5381 5370 5358 5346 5337 5328 5321 5314 5311 5307 5302 5300 5295 5292 5290 5288 5283 5277 5276 5274 5274 5274 5275 5276 5279
5509 5498 5487 5475 5460 5446 5434 5427 5420 5412 5403 5393 5382 5370 5358 5346 5335 5328 5318 5312 5305 5300 5296 5292 5290 5287 5283 5280 5278 5274 5270 5265 5262 5264 5265 5267 5269 5270
5491 5478 5466 5454 5441 5430 5424 5419 5412 5404 5395 5384 5372 5359 5346 5334 5322 5314 5309 5302 5297 5292 5286 5284 5282 5279 5276 5271 5267 5264 5260 5258 5255 5255 5258 5260 5261 5261
5473 5460 5447 5435 5426 5422 5418 5411 5404 5395 5385 5373 5360 5347 5334 5322 5311 5302 5296 5292 5288 5285 5282 5278 5275 5272 5266 5260 5259 5255 5254 5252 5251 5252 5253 5254 5253 5251
5453 5441 5429 5423 5420 5416 5411 5405 5398 5388 5376 5363 5350 5336 5323 5311 5301 5293 5287 5283 5281 5278 5276 5273 5271 5267 5262 5255 5250 5250 5249 5249 5249 5248 5247 5248 5247 5241
5433 5424 5419 5417 5416 5412 5407 5401 5392 5381 5369 5356 5343 5328 5314 5302 5292 5285 5280 5277 5276 5273 5270 5268 5265 5262 5260 5255 5249 5248 5248 5247 5246 5244 5243 5242 5242 5238
5416 5414 5413 5413 5412 5408 5403 5396 5387 5375 5363 5350 5336 5323 5310 5297 5288 5280 5275 5274 5272 5270 5267 5264 5262 5258 5255 5254 5251 5248 5246 5244 5242 5241 5239 5236 5235 5232
5408 5409 5410 5410 5408 5404 5399 5391 5382 5371 5359 5346 5333 5321 5309 5297 5288 5281 5276 5272 5271 5270 5267 5264 5260 5257 5255 5253 5251 5247 5242 5240 5238 5236 5235 5233 5229 5223
5405 5407 5407 5407 5405 5401 5395 5387 5378 5367 5355 5344 5333 5322 5313 5304 5295 5288 5283 5278 5275 5271 5268 5265 5262 5259 5256 5253 5249 5245 5241 5237 5235 5233 5231 5228 5223 5218
5405 5405 5405 5404 5402 5398 5392 5385 5376 5366 5355 5344 5334 5325 5316 5308 5300 5293 5288 5282 5278 5274 5271 5268 5264 5260 5256 5252 5247 5242 5238 5236 5234 5231 5226 5221 5214 5205